Time,TemperatureF,DewpointF,PressureIn,WindDirection,WindDirectionDegrees,WindSpeedMPH,WindSpeedGustMPH,Humidity,HourlyPrecipIn,Conditions,Clouds,dailyrainin,SoftwareType,DateUTC
2013-03-10 00:00:00,31.9,25.8,30.31,NW,315,0.0,0.0,78,0.00,,,0.00,Wunderground v.1.15,2013-03-10 05:00:00,
2013-03-10 00:01:00,31.9,25.8,30.31,NW,315,0.0,0.0,78,0.00,,,0.00,Wunderground v.1.15,2013-03-10 05:01:00,
2013-03-10 00:02:00,31.9,25.8,30.31,NW,315,0.0,0.0,78,0.00,,,0.00,Wunderground v.1.15,2013-03-10 05:02:00,
2013-03-10 00:06:00,31.9,25.8,30.31,NW,315,0.0,0.0,78,0.00,,,0.00,Wunderground v.1.15,2013-03-10 05:06:00,
2013-03-10 00:11:00,31.8,25.7,30.32,NW,315,0.0,0.0,78,0.00,,,0.00,Wunderground v.1.15,2013-03-10 05:11:00,
2013-03-10 00:16:00,31.7,25.9,30.32,NW,315,0.0,0.0,79,0.00,,,0.00,Wunderground v.1.15,2013-03-10 05:16:00,
2013-03-10 00:22:00,31.7,25.9,30.32,NW,315,0.0,0.0,79,0.00,,,0.00,Wunderground v.1.15,2013-03-10 05:22:00,
2013-03-10 00:27:00,31.6,25.8,30.33,NW,315,0.0,0.0,79,0.00,,,0.00,Wunderground v.1.15,2013-03-10 05:27:00,
2013-03-10 00:32:00,31.6,25.8,30.32,NW,315,0.0,0.0,79,0.00,,,0.00,Wunderground v.1.15,2013-03-10 05:32:00,
2013-03-10 00:37:00,31.5,25.7,30.32,NW,315,0.0,0.0,79,0.00,,,0.00,Wunderground v.1.15,2013-03-10 05:37:00,
2013-03-10 00:42:00,31.4,25.6,30.33,NW,315,0.0,0.0,79,0.00,,,0.00,Wunderground v.1.15,2013-03-10 05:42:00,
2013-03-10 00:49:00,31.2,25.7,30.33,NW,315,0.0,0.0,80,0.00,,,0.00,Wunderground v.1.15,2013-03-10 05:49:00,
2013-03-10 00:54:00,31.2,25.7,30.33,NW,315,0.0,0.0,80,0.00,,,0.00,Wunderground v.1.15,2013-03-10 05:54:00,
2013-03-10 01:00:00,31.1,25.7,30.33,NW,315,0.0,0.0,80,0.00,,,0.00,Wunderground v.1.15,2013-03-10 06:00:00,
2013-03-10 01:06:00,31.0,25.6,30.34,NW,315,0.0,0.0,80,0.00,,,0.00,Wunderground v.1.15,2013-03-10 06:06:00,
2013-03-10 01:11:00,30.9,25.5,30.34,NW,315,0.0,0.0,80,0.00,,,0.00,Wunderground v.1.15,2013-03-10 06:11:00,
2013-03-10 01:16:00,30.9,25.5,30.34,NW,315,0.0,0.0,80,0.00,,,0.00,Wunderground v.1.15,2013-03-10 06:16:00,
2013-03-10 01:22:00,30.8,25.4,30.34,NW,315,0.0,0.0,80,0.00,,,0.00,Wunderground v.1.15,2013-03-10 06:22:00,
2013-03-10 01:27:00,30.6,25.5,30.34,NW,315,0.0,0.0,81,0.00,,,0.00,Wunderground v.1.15,2013-03-10 06:27:00,
2013-03-10 01:32:00,30.5,25.4,30.33,NW,315,0.0,0.0,81,0.00,,,0.00,Wunderground v.1.15,2013-03-10 06:32:00,
2013-03-10 01:38:00,30.3,25.2,30.33,NW,315,0.0,0.0,81,0.00,,,0.00,Wunderground v.1.15,2013-03-10 06:38:00,
2013-03-10 01:44:00,30.1,25.0,30.33,NW,315,0.0,0.0,81,0.00,,,0.00,Wunderground v.1.15,2013-03-10 06:44:00,
2013-03-10 01:49:00,29.9,25.1,30.33,NW,315,0.0,0.0,82,0.00,,,0.00,Wunderground v.1.15,2013-03-10 06:49:00,
2013-03-10 01:55:00,29.8,25.0,30.33,NW,315,0.0,0.0,82,0.00,,,0.00,Wunderground v.1.15,2013-03-10 06:55:00,
2013-03-10 03:00:00,29.7,24.9,30.33,NW,315,0.0,0.0,82,0.00,,,0.00,Wunderground v.1.15,2013-03-10 07:00:00,
2013-03-10 03:06:00,29.6,25.1,30.33,NW,315,0.0,0.0,83,0.00,,,0.00,Wunderground v.1.15,2013-03-10 07:06:00,
2013-03-10 03:11:00,29.5,25.0,30.33,NW,315,0.0,0.0,83,0.00,,,0.00,Wunderground v.1.15,2013-03-10 07:11:00,
2013-03-10 03:16:00,29.5,25.0,30.32,NW,315,0.0,0.0,83,0.00,,,0.00,Wunderground v.1.15,2013-03-10 07:16:00,
2013-03-10 03:21:00,29.5,25.0,30.32,NW,315,0.0,0.0,83,0.00,,,0.00,Wunderground v.1.15,2013-03-10 07:21:00,
2013-03-10 03:26:00,29.6,25.1,30.32,NW,315,0.0,0.0,83,0.00,,,0.00,Wunderground v.1.15,2013-03-10 07:26:00,
2013-03-10 03:32:00,29.6,25.1,30.32,NW,315,0.0,0.0,83,0.00,,,0.00,Wunderground v.1.15,2013-03-10 07:32:00,
2013-03-10 03:37:00,29.6,25.1,30.32,NW,315,0.0,0.0,83,0.00,,,0.00,Wunderground v.1.15,2013-03-10 07:37:00,
2013-03-10 03:42:00,29.5,25.0,30.32,NW,315,0.0,0.0,83,0.00,,,0.00,Wunderground v.1.15,2013-03-10 07:42:00,
2013-03-10 03:47:00,29.2,24.7,30.32,NW,315,0.0,0.0,83,0.00,,,0.00,Wunderground v.1.15,2013-03-10 07:47:00,
2013-03-10 03:52:00,29.2,24.7,30.32,NW,315,0.0,0.0,83,0.00,,,0.00,Wunderground v.1.15,2013-03-10 07:52:00,
2013-03-10 03:57:00,29.2,24.7,30.32,NW,315,0.0,0.0,83,0.00,,,0.00,Wunderground v.1.15,2013-03-10 07:57:00,
2013-03-10 04:04:00,29.2,24.7,30.32,NW,315,0.0,0.0,83,0.00,,,0.00,Wunderground v.1.15,2013-03-10 08:04:00,
2013-03-10 04:09:00,29.2,24.7,30.32,NW,315,0.0,0.0,83,0.00,,,0.00,Wunderground v.1.15,2013-03-10 08:09:00,
2013-03-10 04:14:00,29.1,24.9,30.32,NW,315,0.0,0.0,84,0.00,,,0.00,Wunderground v.1.15,2013-03-10 08:14:00,
2013-03-10 04:19:00,29.1,24.6,30.33,NW,315,0.0,0.0,83,0.00,,,0.00,Wunderground v.1.15,2013-03-10 08:19:00,
2013-03-10 04:24:00,28.9,24.4,30.33,NW,315,0.0,0.0,83,0.00,,,0.00,Wunderground v.1.15,2013-03-10 08:24:00,
2013-03-10 04:29:00,28.7,24.5,30.33,NW,315,0.0,0.0,84,0.00,,,0.00,Wunderground v.1.15,2013-03-10 08:29:00,
2013-03-10 04:34:00,28.7,24.5,30.33,NW,315,0.0,0.0,84,0.00,,,0.00,Wunderground v.1.15,2013-03-10 08:34:00,
2013-03-10 04:40:00,28.6,24.4,30.33,NW,315,0.0,0.0,84,0.00,,,0.00,Wunderground v.1.15,2013-03-10 08:40:00,
2013-03-10 04:46:00,28.6,24.4,30.33,NW,315,0.0,0.0,84,0.00,,,0.00,Wunderground v.1.15,2013-03-10 08:46:00,
2013-03-10 04:51:00,28.6,24.4,30.34,NW,315,0.0,0.0,84,0.00,,,0.00,Wunderground v.1.15,2013-03-10 08:51:00,
2013-03-10 04:56:00,28.6,24.4,30.34,NW,315,0.0,0.0,84,0.00,,,0.00,Wunderground v.1.15,2013-03-10 08:56:00,
2013-03-10 05:02:00,28.6,24.4,30.34,NW,315,0.0,0.0,84,0.00,,,0.00,Wunderground v.1.15,2013-03-10 09:02:00,
2013-03-10 05:07:00,28.5,24.3,30.34,NW,315,0.0,0.0,84,0.00,,,0.00,Wunderground v.1.15,2013-03-10 09:07:00,
2013-03-10 05:12:00,28.4,24.2,30.34,NW,315,0.0,0.0,84,0.00,,,0.00,Wunderground v.1.15,2013-03-10 09:12:00,
2013-03-10 05:17:00,28.4,24.5,30.34,NW,315,0.0,0.0,85,0.00,,,0.00,Wunderground v.1.15,2013-03-10 09:17:00,
2013-03-10 05:22:00,28.4,24.2,30.34,NW,315,0.0,0.0,84,0.00,,,0.00,Wunderground v.1.15,2013-03-10 09:22:00,
2013-03-10 05:28:00,28.4,24.2,30.34,NW,315,0.0,0.0,84,0.00,,,0.00,Wunderground v.1.15,2013-03-10 09:28:00,
2013-03-10 05:33:00,28.2,24.0,30.34,NW,315,0.0,0.0,84,0.00,,,0.00,Wunderground v.1.15,2013-03-10 09:33:00,
2013-03-10 05:38:00,28.1,23.9,30.35,NW,315,0.0,0.0,84,0.00,,,0.00,Wunderground v.1.15,2013-03-10 09:38:00,
2013-03-10 05:44:00,28.0,23.8,30.35,NW,315,0.0,0.0,84,0.00,,,0.00,Wunderground v.1.15,2013-03-10 09:44:00,
2013-03-10 05:50:00,28.0,23.8,30.35,NW,315,0.0,0.0,84,0.00,,,0.00,Wunderground v.1.15,2013-03-10 09:50:00,
2013-03-10 05:55:00,28.1,23.9,30.35,NW,315,0.0,0.0,84,0.00,,,0.00,Wunderground v.1.15,2013-03-10 09:55:00,
2013-03-10 06:00:00,28.1,23.9,30.35,NW,315,0.0,0.0,84,0.00,,,0.00,Wunderground v.1.15,2013-03-10 10:00:00,
2013-03-10 06:06:00,28.1,23.9,30.35,NW,315,0.0,0.0,84,0.00,,,0.00,Wunderground v.1.15,2013-03-10 10:06:00,
2013-03-10 06:11:00,28.1,23.9,30.35,NW,315,0.0,0.0,84,0.00,,,0.00,Wunderground v.1.15,2013-03-10 10:11:00,
2013-03-10 06:17:00,28.0,23.8,30.35,NW,315,0.0,0.0,84,0.00,,,0.00,Wunderground v.1.15,2013-03-10 10:17:00,
2013-03-10 06:22:00,28.0,23.8,30.35,NW,315,0.0,0.0,84,0.00,,,0.00,Wunderground v.1.15,2013-03-10 10:22:00,
2013-03-10 06:27:00,28.0,23.8,30.35,NW,315,0.0,0.0,84,0.00,,,0.00,Wunderground v.1.15,2013-03-10 10:27:00,
2013-03-10 06:32:00,28.0,23.8,30.35,NW,315,0.0,0.0,84,0.00,,,0.00,Wunderground v.1.15,2013-03-10 10:32:00,
2013-03-10 06:38:00,27.7,23.5,30.35,NW,315,0.0,0.0,84,0.00,,,0.00,Wunderground v.1.15,2013-03-10 10:38:00,
2013-03-10 06:43:00,27.7,23.5,30.35,NW,315,0.0,0.0,84,0.00,,,0.00,Wunderground v.1.15,2013-03-10 10:43:00,
2013-03-10 06:48:00,27.6,23.4,30.35,NW,315,0.0,0.0,84,0.00,,,0.00,Wunderground v.1.15,2013-03-10 10:48:00,
2013-03-10 06:53:00,27.6,23.4,30.35,NW,315,0.0,0.0,84,0.00,,,0.00,Wunderground v.1.15,2013-03-10 10:53:00,
2013-03-10 06:59:00,27.5,23.3,30.35,NW,315,0.0,0.0,84,0.00,,,0.00,Wunderground v.1.15,2013-03-10 10:59:00,
2013-03-10 07:04:00,27.5,23.3,30.35,NW,315,0.0,0.0,84,0.00,,,0.00,Wunderground v.1.15,2013-03-10 11:04:00,
2013-03-10 07:09:00,27.4,23.2,30.36,NW,315,0.0,0.0,84,0.00,,,0.00,Wunderground v.1.15,2013-03-10 11:09:00,
2013-03-10 07:14:00,27.3,23.1,30.36,NW,315,0.0,0.0,84,0.00,,,0.00,Wunderground v.1.15,2013-03-10 11:14:00,
2013-03-10 07:20:00,27.1,22.9,30.36,NW,315,0.0,0.0,84,0.00,,,0.00,Wunderground v.1.15,2013-03-10 11:20:00,
2013-03-10 07:25:00,27.0,23.1,30.36,NW,315,0.0,0.0,85,0.00,,,0.00,Wunderground v.1.15,2013-03-10 11:25:00,
2013-03-10 07:30:00,26.9,23.0,30.36,NW,315,0.0,0.0,85,0.00,,,0.00,Wunderground v.1.15,2013-03-10 11:30:00,
2013-03-10 07:35:00,26.9,23.0,30.36,NW,315,0.0,0.0,85,0.00,,,0.00,Wunderground v.1.15,2013-03-10 11:35:00,
2013-03-10 07:40:00,26.9,23.0,30.36,NW,315,0.0,0.0,85,0.00,,,0.00,Wunderground v.1.15,2013-03-10 11:40:00,
2013-03-10 07:45:00,26.9,23.3,30.37,NW,315,0.0,0.0,86,0.00,,,0.00,Wunderground v.1.15,2013-03-10 11:45:00,
2013-03-10 07:50:00,27.1,23.5,30.37,NW,315,0.0,0.0,86,0.00,,,0.00,Wunderground v.1.15,2013-03-10 11:50:00,
2013-03-10 07:56:00,27.5,24.1,30.37,NW,315,0.0,0.0,87,0.00,,,0.00,Wunderground v.1.15,2013-03-10 11:56:00,
2013-03-10 08:02:00,28.0,24.4,30.37,NW,315,0.0,0.0,86,0.00,,,0.00,Wunderground v.1.15,2013-03-10 12:02:00,
2013-03-10 08:07:00,28.4,24.7,30.37,NW,315,0.0,0.0,86,0.00,,,0.00,Wunderground v.1.15,2013-03-10 12:07:00,
2013-03-10 08:12:00,28.7,25.0,30.37,NW,315,0.0,0.0,86,0.00,,,0.00,Wunderground v.1.15,2013-03-10 12:12:00,
2013-03-10 08:17:00,29.0,25.3,30.37,NW,315,0.0,0.0,86,0.00,,,0.00,Wunderground v.1.15,2013-03-10 12:17:00,
2013-03-10 08:23:00,29.3,25.6,30.37,NW,315,0.0,0.0,86,0.00,,,0.00,Wunderground v.1.15,2013-03-10 12:23:00,
2013-03-10 08:28:00,29.7,26.0,30.37,NW,315,0.0,0.0,86,0.00,,,0.00,Wunderground v.1.15,2013-03-10 12:28:00,
2013-03-10 08:33:00,30.3,26.9,30.37,NW,315,0.0,0.0,87,0.00,,,0.00,Wunderground v.1.15,2013-03-10 12:33:00,
2013-03-10 08:38:00,31.0,27.6,30.36,NW,315,0.0,0.0,87,0.00,,,0.00,Wunderground v.1.15,2013-03-10 12:38:00,
2013-03-10 08:43:00,31.6,28.2,30.36,NW,315,0.0,0.0,87,0.00,,,0.00,Wunderground v.1.15,2013-03-10 12:43:00,
2013-03-10 08:48:00,32.3,28.9,30.36,NW,315,0.0,0.0,87,0.00,,,0.00,Wunderground v.1.15,2013-03-10 12:48:00,
2013-03-10 08:53:00,32.9,29.2,30.37,NW,315,0.0,0.0,86,0.00,,,0.00,Wunderground v.1.15,2013-03-10 12:53:00,
2013-03-10 08:59:00,33.5,29.5,30.37,NW,315,0.0,0.0,85,0.00,,,0.00,Wunderground v.1.15,2013-03-10 12:59:00,
2013-03-10 09:04:00,34.2,29.9,30.37,NW,315,0.0,0.0,84,0.00,,,0.00,Wunderground v.1.15,2013-03-10 13:04:00,
2013-03-10 09:09:00,34.9,30.6,30.37,East,91,0.0,1.0,84,0.00,,,0.00,Wunderground v.1.15,2013-03-10 13:09:00,
2013-03-10 09:14:00,35.5,31.1,30.37,ESE,122,1.0,2.0,84,0.00,,,0.00,Wunderground v.1.15,2013-03-10 13:14:00,
2013-03-10 09:20:00,36.3,31.9,30.37,East,79,2.0,3.0,84,0.00,,,0.00,Wunderground v.1.15,2013-03-10 13:20:00,
2013-03-10 09:25:00,37.0,32.3,30.37,East,99,3.0,4.0,83,0.00,,,0.00,Wunderground v.1.15,2013-03-10 13:25:00,
2013-03-10 09:30:00,37.7,32.7,30.37,East,94,3.0,3.0,82,0.00,,,0.00,Wunderground v.1.15,2013-03-10 13:30:00,
2013-03-10 09:35:00,38.3,32.7,30.38,ESE,107,4.0,6.0,80,0.00,,,0.00,Wunderground v.1.15,2013-03-10 13:35:00,
2013-03-10 09:40:00,38.7,32.7,30.37,ESE,105,3.0,3.0,79,0.00,,,0.00,Wunderground v.1.15,2013-03-10 13:40:00,
2013-03-10 09:45:00,39.2,33.2,30.38,ENE,67,3.0,5.0,79,0.00,,,0.00,Wunderground v.1.15,2013-03-10 13:45:00,
2013-03-10 09:50:00,39.7,33.4,30.38,ENE,71,2.0,2.0,78,0.00,,,0.00,Wunderground v.1.15,2013-03-10 13:50:00,
2013-03-10 09:55:00,40.4,33.4,30.38,East,95,2.0,4.0,76,0.00,,,0.00,Wunderground v.1.15,2013-03-10 13:55:00,
2013-03-10 10:00:00,40.4,33.1,30.37,ESE,116,2.0,2.0,75,0.00,,,0.00,Wunderground v.1.15,2013-03-10 14:00:00,
2013-03-10 10:06:00,40.3,33.3,30.37,East,82,4.0,5.0,76,0.00,,,0.00,Wunderground v.1.15,2013-03-10 14:06:00,
2013-03-10 10:11:00,40.4,33.4,30.37,ENE,67,3.0,4.0,76,0.00,,,0.00,Wunderground v.1.15,2013-03-10 14:11:00,
2013-03-10 10:17:00,40.7,33.4,30.37,ESE,103,3.0,4.0,75,0.00,,,0.00,Wunderground v.1.15,2013-03-10 14:17:00,
2013-03-10 10:22:00,40.8,33.5,30.37,ENE,62,2.0,5.0,75,0.00,,,0.00,Wunderground v.1.15,2013-03-10 14:22:00,
2013-03-10 10:27:00,40.9,33.6,30.37,ENE,71,3.0,5.0,75,0.00,,,0.00,Wunderground v.1.15,2013-03-10 14:27:00,
2013-03-10 10:32:00,41.0,33.3,30.37,SE,133,2.0,3.0,74,0.00,,,0.00,Wunderground v.1.15,2013-03-10 14:32:00,
2013-03-10 10:37:00,41.3,33.3,30.37,SSW,202,2.0,3.0,73,0.00,,,0.00,Wunderground v.1.15,2013-03-10 14:37:00,
2013-03-10 10:42:00,41.5,33.5,30.37,East,98,2.0,3.0,73,0.00,,,0.00,Wunderground v.1.15,2013-03-10 14:42:00,
2013-03-10 10:47:00,41.6,33.2,30.37,East,91,2.0,3.0,72,0.00,,,0.00,Wunderground v.1.15,2013-03-10 14:47:00,
2013-03-10 10:52:00,41.9,33.5,30.37,ESE,107,2.0,2.0,72,0.00,,,0.00,Wunderground v.1.15,2013-03-10 14:52:00,
2013-03-10 10:57:00,42.1,33.7,30.37,SSE,166,1.0,2.0,72,0.00,,,0.00,Wunderground v.1.15,2013-03-10 14:57:00,
2013-03-10 11:03:00,42.3,33.2,30.37,East,101,2.0,5.0,70,0.00,,,0.00,Wunderground v.1.15,2013-03-10 15:03:00,
2013-03-10 11:09:00,42.4,33.3,30.37,East,88,3.0,5.0,70,0.00,,,0.00,Wunderground v.1.15,2013-03-10 15:09:00,
2013-03-10 11:14:00,42.6,33.5,30.37,ENE,73,3.0,4.0,70,0.00,,,0.00,Wunderground v.1.15,2013-03-10 15:14:00,
2013-03-10 11:19:00,42.8,33.7,30.37,ESE,123,2.0,4.0,70,0.00,,,0.00,Wunderground v.1.15,2013-03-10 15:19:00,
2013-03-10 11:24:00,43.4,33.9,30.37,ESE,115,1.0,2.0,69,0.00,,,0.00,Wunderground v.1.15,2013-03-10 15:24:00,
2013-03-10 11:29:00,44.0,34.1,30.37,East,80,1.0,3.0,68,0.00,,,0.00,Wunderground v.1.15,2013-03-10 15:29:00,
2013-03-10 11:35:00,44.1,33.5,30.36,SSE,162,2.0,6.0,66,0.00,,,0.00,Wunderground v.1.15,2013-03-10 15:35:00,
2013-03-10 11:40:00,44.4,34.1,30.36,ESE,103,2.0,2.0,67,0.00,,,0.00,Wunderground v.1.15,2013-03-10 15:40:00,
2013-03-10 11:45:00,44.6,33.6,30.36,ESE,113,2.0,4.0,65,0.00,,,0.00,Wunderground v.1.15,2013-03-10 15:45:00,
2013-03-10 11:50:00,44.4,33.4,30.36,East,98,3.0,3.0,65,0.00,,,0.00,Wunderground v.1.15,2013-03-10 15:50:00,
2013-03-10 11:55:00,44.2,33.6,30.36,ENE,67,3.0,4.0,66,0.00,,,0.00,Wunderground v.1.15,2013-03-10 15:55:00,
2013-03-10 12:00:00,44.5,33.8,30.36,East,82,2.0,3.0,66,0.00,,,0.00,Wunderground v.1.15,2013-03-10 16:00:00,
2013-03-10 12:06:00,45.0,33.9,30.36,SE,144,2.0,4.0,65,0.00,,,0.00,Wunderground v.1.15,2013-03-10 16:06:00,
2013-03-10 12:11:00,45.3,33.8,30.36,East,101,2.0,2.0,64,0.00,,,0.00,Wunderground v.1.15,2013-03-10 16:11:00,
2013-03-10 12:16:00,45.5,33.6,30.36,ENE,69,2.0,3.0,63,0.00,,,0.00,Wunderground v.1.15,2013-03-10 16:16:00,
2013-03-10 12:21:00,45.3,33.4,30.36,East,84,2.0,3.0,63,0.00,,,0.00,Wunderground v.1.15,2013-03-10 16:21:00,
2013-03-10 12:27:00,45.4,33.5,30.35,ESE,105,3.0,4.0,63,0.00,,,0.00,Wunderground v.1.15,2013-03-10 16:27:00,
2013-03-10 12:32:00,45.8,34.3,30.35,ENE,69,2.0,2.0,64,0.00,,,0.00,Wunderground v.1.15,2013-03-10 16:32:00,
2013-03-10 12:37:00,46.3,34.0,30.35,NE,55,1.0,2.0,62,0.00,,,0.00,Wunderground v.1.15,2013-03-10 16:37:00,
2013-03-10 12:43:00,46.7,34.4,30.35,ESE,121,1.0,3.0,62,0.00,,,0.00,Wunderground v.1.15,2013-03-10 16:43:00,
2013-03-10 12:48:00,46.9,34.6,30.35,SSE,157,2.0,3.0,62,0.00,,,0.00,Wunderground v.1.15,2013-03-10 16:48:00,
2013-03-10 12:53:00,46.9,34.1,30.34,SE,134,2.0,4.0,61,0.00,,,0.00,Wunderground v.1.15,2013-03-10 16:53:00,
2013-03-10 12:58:00,46.6,34.3,30.34,SSE,152,2.0,4.0,62,0.00,,,0.00,Wunderground v.1.15,2013-03-10 16:58:00,
2013-03-10 13:04:00,46.6,34.3,30.34,SSW,196,2.0,6.0,62,0.00,,,0.00,Wunderground v.1.15,2013-03-10 17:04:00,
2013-03-10 13:09:00,46.9,34.6,30.34,East,86,3.0,6.0,62,0.00,,,0.00,Wunderground v.1.15,2013-03-10 17:09:00,
2013-03-10 13:14:00,46.6,34.3,30.34,East,98,3.0,4.0,62,0.00,,,0.00,Wunderground v.1.15,2013-03-10 17:14:00,
2013-03-10 13:20:00,46.8,33.6,30.34,SSE,157,2.0,2.0,60,0.00,,,0.00,Wunderground v.1.15,2013-03-10 17:20:00,
2013-03-10 13:25:00,46.7,32.7,30.34,ENE,78,2.0,2.0,58,0.00,,,0.00,Wunderground v.1.15,2013-03-10 17:25:00,
2013-03-10 13:30:00,46.7,32.7,30.34,ENE,62,2.0,3.0,58,0.00,,,0.00,Wunderground v.1.15,2013-03-10 17:30:00,
2013-03-10 13:35:00,46.6,33.4,30.34,East,90,2.0,3.0,60,0.00,,,0.00,Wunderground v.1.15,2013-03-10 17:35:00,
2013-03-10 13:40:00,46.8,33.6,30.33,NE,40,2.0,2.0,60,0.00,,,0.00,Wunderground v.1.15,2013-03-10 17:40:00,
2013-03-10 13:45:00,46.8,33.6,30.33,East,96,2.0,3.0,60,0.00,,,0.00,Wunderground v.1.15,2013-03-10 17:45:00,
2013-03-10 13:50:00,46.9,33.7,30.33,East,85,2.0,2.0,60,0.00,,,0.00,Wunderground v.1.15,2013-03-10 17:50:00,
2013-03-10 13:56:00,46.9,33.3,30.33,East,85,2.0,3.0,59,0.00,,,0.00,Wunderground v.1.15,2013-03-10 17:56:00,
2013-03-10 14:02:00,47.2,32.3,30.33,SSW,213,1.0,2.0,56,0.00,,,0.00,Wunderground v.1.15,2013-03-10 18:02:00,
2013-03-10 14:07:00,47.7,33.2,30.33,East,80,1.0,3.0,57,0.00,,,0.00,Wunderground v.1.15,2013-03-10 18:07:00,
2013-03-10 14:12:00,48.0,33.5,30.32,SSE,150,1.0,3.0,57,0.00,,,0.00,Wunderground v.1.15,2013-03-10 18:12:00,
2013-03-10 14:18:00,47.9,33.4,30.32,SW,215,2.0,4.0,57,0.00,,,0.00,Wunderground v.1.15,2013-03-10 18:18:00,
2013-03-10 14:23:00,48.3,33.3,30.32,East,97,1.0,2.0,56,0.00,,,0.00,Wunderground v.1.15,2013-03-10 18:23:00,
2013-03-10 14:29:00,48.6,33.6,30.32,South,169,1.0,4.0,56,0.00,,,0.00,Wunderground v.1.15,2013-03-10 18:29:00,
2013-03-10 14:34:00,48.6,33.6,30.32,South,175,2.0,4.0,56,0.00,,,0.00,Wunderground v.1.15,2013-03-10 18:34:00,
2013-03-10 14:39:00,48.6,33.6,30.32,South,172,2.0,4.0,56,0.00,,,0.00,Wunderground v.1.15,2013-03-10 18:39:00,
2013-03-10 14:45:00,48.9,34.3,30.31,SSW,205,2.0,4.0,57,0.00,,,0.00,Wunderground v.1.15,2013-03-10 18:45:00,
2013-03-10 14:50:00,49.1,34.1,30.31,SSW,202,2.0,2.0,56,0.00,,,0.00,Wunderground v.1.15,2013-03-10 18:50:00,
2013-03-10 14:55:00,49.0,33.5,30.31,SSW,205,2.0,5.0,55,0.00,,,0.00,Wunderground v.1.15,2013-03-10 18:55:00,
2013-03-10 15:00:00,49.2,34.6,30.31,South,175,2.0,2.0,57,0.00,,,0.00,Wunderground v.1.15,2013-03-10 19:00:00,
2013-03-10 15:06:00,49.3,34.7,30.31,ESE,122,2.0,2.0,57,0.00,,,0.00,Wunderground v.1.15,2013-03-10 19:06:00,
2013-03-10 15:11:00,49.5,34.0,30.31,SSE,157,2.0,3.0,55,0.00,,,0.00,Wunderground v.1.15,2013-03-10 19:11:00,
2013-03-10 15:16:00,49.5,34.9,30.31,SSE,152,2.0,5.0,57,0.00,,,0.00,Wunderground v.1.15,2013-03-10 19:16:00,
2013-03-10 15:22:00,49.6,34.1,30.31,East,80,1.0,3.0,55,0.00,,,0.00,Wunderground v.1.15,2013-03-10 19:22:00,
2013-03-10 15:27:00,49.5,35.3,30.31,East,90,2.0,3.0,58,0.00,,,0.00,Wunderground v.1.15,2013-03-10 19:27:00,
2013-03-10 15:33:00,49.2,35.0,30.31,SW,215,2.0,3.0,58,0.00,,,0.00,Wunderground v.1.15,2013-03-10 19:33:00,
2013-03-10 15:38:00,48.7,34.6,30.31,SSW,213,3.0,5.0,58,0.00,,,0.00,Wunderground v.1.15,2013-03-10 19:38:00,
2013-03-10 15:44:00,48.3,35.0,30.31,SE,146,3.0,3.0,60,0.00,,,0.00,Wunderground v.1.15,2013-03-10 19:44:00,
2013-03-10 15:49:00,48.1,34.9,30.31,South,173,1.0,3.0,60,0.00,,,0.00,Wunderground v.1.15,2013-03-10 19:49:00,
2013-03-10 15:54:00,48.0,35.6,30.31,SSW,205,1.0,5.0,62,0.00,,,0.00,Wunderground v.1.15,2013-03-10 19:54:00,
2013-03-10 16:00:00,48.1,36.5,30.31,SSE,157,2.0,3.0,64,0.00,,,0.00,Wunderground v.1.15,2013-03-10 20:00:00,
2013-03-10 16:06:00,48.2,36.6,30.31,ESE,106,2.0,3.0,64,0.00,,,0.00,Wunderground v.1.15,2013-03-10 20:06:00,
2013-03-10 16:12:00,48.3,36.7,30.30,South,178,3.0,4.0,64,0.00,,,0.00,Wunderground v.1.15,2013-03-10 20:12:00,
2013-03-10 16:18:00,48.2,36.2,30.30,SSE,160,3.0,4.0,63,0.00,,,0.00,Wunderground v.1.15,2013-03-10 20:18:00,
2013-03-10 16:24:00,47.9,36.3,30.30,SSE,159,3.0,3.0,64,0.00,,,0.00,Wunderground v.1.15,2013-03-10 20:24:00,
2013-03-10 16:28:00,47.8,36.6,30.30,NE,40,2.0,4.0,65,0.00,,,0.00,Wunderground v.1.15,2013-03-10 20:28:00,
2013-03-10 16:34:00,47.6,36.8,30.30,SE,124,2.0,5.0,66,0.00,,,0.00,Wunderground v.1.15,2013-03-10 20:34:00,
2013-03-10 16:39:00,47.2,36.0,30.30,South,188,2.0,5.0,65,0.00,,,0.00,Wunderground v.1.15,2013-03-10 20:39:00,
2013-03-10 16:45:00,47.0,35.8,30.30,SW,223,3.0,7.0,65,0.00,,,0.00,Wunderground v.1.15,2013-03-10 20:45:00,
2013-03-10 16:50:00,46.5,35.7,30.30,SSW,196,4.0,6.0,66,0.00,,,0.00,Wunderground v.1.15,2013-03-10 20:50:00,
2013-03-10 16:55:00,46.0,35.7,30.29,SE,140,4.0,6.0,67,0.00,,,0.00,Wunderground v.1.15,2013-03-10 20:55:00,
2013-03-10 17:00:00,45.7,35.7,30.29,South,172,3.0,3.0,68,0.00,,,0.00,Wunderground v.1.15,2013-03-10 21:00:00,
2013-03-10 17:06:00,45.5,35.9,30.29,SSW,207,3.0,5.0,69,0.00,,,0.00,Wunderground v.1.15,2013-03-10 21:06:00,
2013-03-10 17:11:00,45.4,35.8,30.29,SSW,193,3.0,3.0,69,0.00,,,0.00,Wunderground v.1.15,2013-03-10 21:11:00,
2013-03-10 17:17:00,45.1,35.9,30.30,South,189,4.0,5.0,70,0.00,,,0.00,Wunderground v.1.15,2013-03-10 21:17:00,
2013-03-10 17:22:00,45.0,35.8,30.29,SSE,166,3.0,6.0,70,0.00,,,0.00,Wunderground v.1.15,2013-03-10 21:22:00,
2013-03-10 17:28:00,44.7,35.5,30.29,SSW,197,4.0,6.0,70,0.00,,,0.00,Wunderground v.1.15,2013-03-10 21:28:00,
2013-03-10 17:33:00,44.5,35.7,30.29,South,175,3.0,4.0,71,0.00,,,0.00,Wunderground v.1.15,2013-03-10 21:33:00,
2013-03-10 17:39:00,44.2,35.7,30.30,SSE,153,3.0,5.0,72,0.00,,,0.00,Wunderground v.1.15,2013-03-10 21:39:00,
2013-03-10 17:44:00,43.8,35.4,30.29,SSE,167,3.0,4.0,72,0.00,,,0.00,Wunderground v.1.15,2013-03-10 21:44:00,
2013-03-10 17:50:00,43.5,35.4,30.29,South,190,3.0,4.0,73,0.00,,,0.00,Wunderground v.1.15,2013-03-10 21:50:00,
2013-03-10 17:56:00,43.4,35.7,30.29,East,89,2.0,4.0,74,0.00,,,0.00,Wunderground v.1.15,2013-03-10 21:56:00,
2013-03-10 18:01:00,43.4,35.7,30.29,South,188,1.0,2.0,74,0.00,,,0.00,Wunderground v.1.15,2013-03-10 22:01:00,
2013-03-10 18:06:00,43.3,35.6,30.29,South,173,0.0,3.0,74,0.00,,,0.00,Wunderground v.1.15,2013-03-10 22:06:00,
2013-03-10 18:12:00,43.0,35.3,30.29,East,96,1.0,2.0,74,0.00,,,0.00,Wunderground v.1.15,2013-03-10 22:12:00,
2013-03-10 18:17:00,42.7,35.0,30.29,SSE,159,2.0,4.0,74,0.00,,,0.00,Wunderground v.1.15,2013-03-10 22:17:00,
2013-03-10 18:22:00,42.4,35.0,30.29,South,185,2.0,3.0,75,0.00,,,0.00,Wunderground v.1.15,2013-03-10 22:22:00,
2013-03-10 18:29:00,42.1,35.1,30.30,SSE,163,1.0,4.0,76,0.00,,,0.00,Wunderground v.1.15,2013-03-10 22:29:00,
2013-03-10 18:34:00,42.0,35.0,30.30,SSE,163,1.0,1.0,76,0.00,,,0.00,Wunderground v.1.15,2013-03-10 22:34:00,
2013-03-10 18:39:00,41.8,34.8,30.30,ESE,111,1.0,2.0,76,0.00,,,0.00,Wunderground v.1.15,2013-03-10 22:39:00,
2013-03-10 18:44:00,41.6,34.6,30.30,SSE,157,1.0,2.0,76,0.00,,,0.00,Wunderground v.1.15,2013-03-10 22:44:00,
2013-03-10 18:50:00,41.3,34.6,30.31,SSE,158,1.0,1.0,77,0.00,,,0.00,Wunderground v.1.15,2013-03-10 22:50:00,
2013-03-10 18:55:00,41.2,34.5,30.31,SSE,159,1.0,1.0,77,0.00,,,0.00,Wunderground v.1.15,2013-03-10 22:55:00,
2013-03-10 19:00:00,41.2,34.5,30.32,SSE,159,0.0,0.0,77,0.00,,,0.00,Wunderground v.1.15,2013-03-10 23:00:00,
2013-03-10 19:06:00,41.0,34.3,30.32,SE,144,0.0,1.0,77,0.00,,,0.00,Wunderground v.1.15,2013-03-10 23:06:00,
2013-03-10 19:12:00,40.8,34.1,30.32,East,90,0.0,1.0,77,0.00,,,0.00,Wunderground v.1.15,2013-03-10 23:12:00,
2013-03-10 19:18:00,40.5,34.2,30.31,SE,145,1.0,2.0,78,0.00,,,0.00,Wunderground v.1.15,2013-03-10 23:18:00,
2013-03-10 19:23:00,40.3,34.0,30.32,SE,145,1.0,1.0,78,0.00,,,0.00,Wunderground v.1.15,2013-03-10 23:23:00,
2013-03-10 19:28:00,40.0,33.7,30.32,ESE,115,1.0,2.0,78,0.00,,,0.00,Wunderground v.1.15,2013-03-10 23:28:00,
2013-03-10 19:34:00,39.7,33.4,30.32,ESE,119,1.0,3.0,78,0.00,,,0.00,Wunderground v.1.15,2013-03-10 23:34:00,
2013-03-10 19:40:00,39.5,33.2,30.32,ESE,119,0.0,0.0,78,0.00,,,0.00,Wunderground v.1.15,2013-03-10 23:40:00,
2013-03-10 19:46:00,39.4,33.1,30.31,ESE,116,0.0,1.0,78,0.00,,,0.00,Wunderground v.1.15,2013-03-10 23:46:00,
2013-03-10 19:51:00,39.3,33.0,30.31,ESE,123,0.0,1.0,78,0.00,,,0.00,Wunderground v.1.15,2013-03-10 23:51:00,
2013-03-10 19:56:00,39.2,32.9,30.31,ESE,111,1.0,2.0,78,0.00,,,0.00,Wunderground v.1.15,2013-03-10 23:56:00,
2013-03-10 20:01:00,39.1,33.1,30.31,ESE,111,0.0,0.0,79,0.00,,,0.00,Wunderground v.1.15,2013-03-11 00:01:00,
2013-03-10 20:06:00,39.1,33.1,30.31,ESE,111,0.0,0.0,79,0.00,,,0.00,Wunderground v.1.15,2013-03-11 00:06:00,
2013-03-10 20:12:00,39.0,33.4,30.31,SSE,150,0.0,1.0,80,0.00,,,0.00,Wunderground v.1.15,2013-03-11 00:12:00,
2013-03-10 20:18:00,38.7,33.4,30.31,ESE,105,1.0,3.0,81,0.00,,,0.00,Wunderground v.1.15,2013-03-11 00:18:00,
2013-03-10 20:24:00,38.5,33.5,30.31,SSE,154,1.0,3.0,82,0.00,,,0.00,Wunderground v.1.15,2013-03-11 00:24:00,
2013-03-10 20:29:00,38.3,33.6,30.31,SW,224,1.0,3.0,83,0.00,,,0.00,Wunderground v.1.15,2013-03-11 00:29:00,
2013-03-10 20:35:00,38.0,33.3,30.31,South,172,1.0,2.0,83,0.00,,,0.00,Wunderground v.1.15,2013-03-11 00:35:00,
2013-03-10 20:40:00,37.8,33.4,30.31,SSE,161,2.0,2.0,84,0.00,,,0.00,Wunderground v.1.15,2013-03-11 00:40:00,
2013-03-10 20:45:00,37.6,33.5,30.32,SSE,161,2.0,2.0,85,0.00,,,0.00,Wunderground v.1.15,2013-03-11 00:45:00,
2013-03-10 20:50:00,37.5,33.4,30.32,SSE,168,1.0,1.0,85,0.00,,,0.00,Wunderground v.1.15,2013-03-11 00:50:00,
2013-03-10 20:56:00,37.4,33.6,30.32,SSE,168,1.0,2.0,86,0.00,,,0.00,Wunderground v.1.15,2013-03-11 00:56:00,
2013-03-10 21:02:00,37.5,33.7,30.32,SSE,165,1.0,2.0,86,0.00,,,0.00,Wunderground v.1.15,2013-03-11 01:02:00,
2013-03-10 21:07:00,37.4,33.6,30.32,South,176,1.0,3.0,86,0.00,,,0.00,Wunderground v.1.15,2013-03-11 01:07:00,
2013-03-10 21:14:00,37.4,33.6,30.32,South,188,2.0,2.0,86,0.00,,,0.00,Wunderground v.1.15,2013-03-11 01:14:00,
2013-03-10 21:19:00,37.2,33.7,30.32,South,178,2.0,4.0,87,0.00,,,0.00,Wunderground v.1.15,2013-03-11 01:19:00,
2013-03-10 21:25:00,37.1,33.6,30.31,ESE,114,2.0,3.0,87,0.00,,,0.00,Wunderground v.1.15,2013-03-11 01:25:00,
2013-03-10 21:31:00,37.1,33.6,30.32,SSE,153,2.0,2.0,87,0.00,,,0.00,Wunderground v.1.15,2013-03-11 01:31:00,
2013-03-10 21:36:00,37.1,33.6,30.32,ESE,111,1.0,2.0,87,0.00,,,0.00,Wunderground v.1.15,2013-03-11 01:36:00,
2013-03-10 21:42:00,37.2,33.7,30.32,ESE,111,0.0,1.0,87,0.00,,,0.00,Wunderground v.1.15,2013-03-11 01:42:00,
2013-03-10 21:48:00,37.3,33.8,30.31,ESE,113,0.0,2.0,87,0.00,,,0.00,Wunderground v.1.15,2013-03-11 01:48:00,
2013-03-10 21:53:00,37.2,33.7,30.31,SE,135,1.0,2.0,87,0.00,,,0.00,Wunderground v.1.15,2013-03-11 01:53:00,
2013-03-10 21:59:00,37.2,33.7,30.31,East,88,1.0,2.0,87,0.00,,,0.00,Wunderground v.1.15,2013-03-11 01:59:00,
2013-03-10 22:04:00,37.1,33.6,30.31,ENE,69,1.0,2.0,87,0.00,,,0.00,Wunderground v.1.15,2013-03-11 02:04:00,
2013-03-10 22:10:00,37.0,33.8,30.30,East,90,1.0,1.0,88,0.00,,,0.00,Wunderground v.1.15,2013-03-11 02:10:00,
2013-03-10 22:15:00,36.9,33.7,30.31,South,173,1.0,4.0,88,0.00,,,0.00,Wunderground v.1.15,2013-03-11 02:15:00,
2013-03-10 22:21:00,36.8,33.6,30.30,SE,139,1.0,1.0,88,0.00,,,0.00,Wunderground v.1.15,2013-03-11 02:21:00,
2013-03-10 22:27:00,36.8,33.6,30.30,SE,139,1.0,1.0,88,0.00,,,0.00,Wunderground v.1.15,2013-03-11 02:27:00,
2013-03-10 22:32:00,36.9,33.7,30.30,South,190,0.0,0.0,88,0.00,,,0.00,Wunderground v.1.15,2013-03-11 02:32:00,
2013-03-10 22:37:00,37.0,33.8,30.30,South,190,0.0,0.0,88,0.00,,,0.00,Wunderground v.1.15,2013-03-11 02:37:00,
2013-03-10 22:42:00,37.1,33.9,30.31,South,190,0.0,0.0,88,0.00,,,0.00,Wunderground v.1.15,2013-03-11 02:42:00,
2013-03-10 22:47:00,37.2,34.0,30.30,South,190,0.0,1.0,88,0.00,,,0.00,Wunderground v.1.15,2013-03-11 02:47:00,
2013-03-10 22:53:00,37.4,33.9,30.31,South,190,0.0,2.0,87,0.00,,,0.00,Wunderground v.1.15,2013-03-11 02:53:00,
2013-03-10 22:59:00,37.4,33.9,30.31,SSE,149,0.0,2.0,87,0.00,,,0.00,Wunderground v.1.15,2013-03-11 02:59:00,
2013-03-10 23:04:00,37.4,33.9,30.31,SSE,149,0.0,0.0,87,0.00,,,0.00,Wunderground v.1.15,2013-03-11 03:04:00,
2013-03-10 23:09:00,37.4,33.9,30.31,SSE,149,0.0,0.0,87,0.00,,,0.00,Wunderground v.1.15,2013-03-11 03:09:00,
2013-03-10 23:14:00,37.5,34.0,30.31,SSE,149,0.0,1.0,87,0.00,,,0.00,Wunderground v.1.15,2013-03-11 03:14:00,
2013-03-10 23:19:00,37.6,34.1,30.31,SSE,149,0.0,1.0,87,0.00,,,0.00,Wunderground v.1.15,2013-03-11 03:19:00,
2013-03-10 23:24:00,37.6,33.8,30.31,SSE,149,0.0,0.0,86,0.00,,,0.00,Wunderground v.1.15,2013-03-11 03:24:00,
2013-03-10 23:30:00,37.6,33.8,30.31,SSE,149,0.0,0.0,86,0.00,,,0.00,Wunderground v.1.15,2013-03-11 03:30:00,
2013-03-10 23:36:00,37.8,34.0,30.31,SSE,149,0.0,0.0,86,0.00,,,0.00,Wunderground v.1.15,2013-03-11 03:36:00,
2013-03-10 23:41:00,37.9,34.1,30.32,SSE,149,0.0,0.0,86,0.00,,,0.00,Wunderground v.1.15,2013-03-11 03:41:00,
2013-03-10 23:47:00,38.1,34.3,30.31,SSE,149,0.0,0.0,86,0.00,,,0.00,Wunderground v.1.15,2013-03-11 03:47:00,
2013-03-10 23:52:00,38.1,34.3,30.31,SSE,149,0.0,0.0,86,0.00,,,0.00,Wunderground v.1.15,2013-03-11 03:52:00,
2013-03-10 23:58:00,37.9,34.1,30.31,East,96,0.0,1.0,86,0.00,,,0.00,Wunderground v.1.15,2013-03-11 03:58:00,